TimeIST,TemperatureF,Dew PointF,Humidity,Sea Level PressureIn,VisibilityMPH,Wind Direction,Wind SpeedMPH,Gust SpeedMPH,PrecipitationIn,Events,Conditions,WindDirDegrees,DateUTC
12:00 AM,78.8,78.8,100,29.59,1.2,Variable,1.2,-,N/A,,Mostly Cloudy,0,2013-07-20 18:30:00
1:00 AM,78.8,78.8,100,29.56,1.2,West,5.8,-,N/A,,Mostly Cloudy,280,2013-07-20 19:30:00
2:00 AM,78.8,78.8,100,29.56,1.2,West,4.6,-,N/A,,Mostly Cloudy,260,2013-07-20 20:30:00
2:30 AM,79,77,92,29.49,1,Calm,Calm,,,,Mist,,2013-07-20 21:00:00
3:00 AM,78.8,78.8,100,29.53,1.2,Variable,3.5,-,N/A,,Mostly Cloudy,0,2013-07-20 21:30:00
4:00 AM,78.8,78.8,100,29.53,1.2,Variable,1.2,-,N/A,,Mostly Cloudy,0,2013-07-20 22:30:00
5:00 AM,78.8,78.8,100,29.53,1.2,West,4.6,-,N/A,,Mostly Cloudy,260,2013-07-20 23:30:00
5:30 AM,78,78,100,29.47,1,,3.5,,,,Mist,,2013-07-21 00:00:00
5:30 AM,78.8,78.8,100,29.53,1.2,Variable,2.3,-,N/A,,Mostly Cloudy,0,2013-07-21 00:00:00
6:00 AM,78.8,78.8,100,29.53,1.2,WNW,4.6,-,N/A,,Mostly Cloudy,290,2013-07-21 00:30:00
7:00 AM,78.8,78.8,100,29.56,1.6,WNW,6.9,-,N/A,,Mostly Cloudy,290,2013-07-21 01:30:00
8:00 AM,80.6,77.0,89,29.56,1.6,NW,8.1,-,N/A,,Mostly Cloudy,310,2013-07-21 02:30:00
8:30 AM,80,77,87,29.49,1,NW,4.6,,,,Mist,320,2013-07-21 03:00:00
9:00 AM,82.4,77.0,84,29.56,1.6,NW,5.8,-,N/A,,Mostly Cloudy,320,2013-07-21 03:30:00
10:00 AM,82.4,77.0,84,29.56,2.2,NW,8.1,-,N/A,,Haze,310,2013-07-21 04:30:00
11:00 AM,82.4,77.0,84,29.56,2.2,NW,5.8,-,N/A,,Haze,310,2013-07-21 05:30:00
12:00 PM,84.2,78.8,84,29.56,2.5,NW,6.9,-,N/A,,Haze,310,2013-07-21 06:30:00
1:00 PM,86.0,78.8,79,29.53,2.5,NW,9.2,-,N/A,,Haze,310,2013-07-21 07:30:00
2:00 PM,86.0,77.0,74,29.50,2.5,Variable,8.1,-,N/A,,Haze,0,2013-07-21 08:30:00
3:00 PM,89.6,78.8,70,29.47,2.5,Variable,6.9,-,N/A,,Haze,0,2013-07-21 09:30:00
4:00 PM,87.8,77.0,70,29.44,2.5,Variable,5.8,-,N/A,,Haze,0,2013-07-21 10:30:00
5:00 PM,86.0,78.8,79,29.44,2.5,East,4.6,-,N/A,,Haze,80,2013-07-21 11:30:00
5:30 PM,86,77,69,29.36,1,ENE,4.6,,,,Haze,70,2013-07-21 12:00:00
5:30 PM,86.0,78.8,79,29.42,1.9,ENE,5.8,-,N/A,,Haze,70,2013-07-21 12:00:00
6:00 PM,86.0,78.8,79,29.42,1.9,East,4.6,-,N/A,,Haze,90,2013-07-21 12:30:00
7:00 PM,84.2,78.8,84,29.44,1.9,Calm,Calm,-,N/A,,Haze,0,2013-07-21 13:30:00
8:00 PM,82.4,80.6,94,29.47,1.6,Variable,1.2,-,N/A,,Mostly Cloudy,0,2013-07-21 14:30:00
8:30 PM,83,80,89,29.40,1,SE,2.3,,,,Mist,140,2013-07-21 15:00:00
9:00 PM,82.4,80.6,94,29.47,1.2,Variable,1.2,-,N/A,,Mostly Cloudy,0,2013-07-21 15:30:00
10:00 PM,80.6,78.8,94,29.50,1.2,Variable,3.5,-,N/A,,Scattered Clouds,0,2013-07-21 16:30:00
11:00 PM,80.6,78.8,94,29.50,1.2,Variable,2.3,-,N/A,,Scattered Clouds,0,2013-07-21 17:30:00
11:30 PM,81,79,92,29.43,1,ESE,3.5,,,,Mist,110,2013-07-21 18:00:00